EW9778 Weather Reports


Display with metric or nautical units.
time (UTC)temp
F
wind
direction
speed
MPH
gust
MPH
rain 1hr
in
rain 24hr
in
rain mn
in
humidity
%
barometer
mb
20260505153101 77 224 4.0 10.0 0.00 0.00 0.00 83 1007.9
20260505151603 76 229 4.0 10.0 0.00 0.00 0.00 83 1007.9
20260505140106 75 213 2.0 6.0 0.00 0.00 0.00 85 1007.9
20260505124540 73 196 0.0 9.0 0.00 0.00 0.00 86 1007.7
20260505123042 73 205 4.0 9.0 0.00 0.00 0.00 87 1007.6
20260505121540 73 221 1.0 6.0 0.00 0.00 0.00 86 1007.5
20260505120045 72 227 3.0 9.0 0.00 0.00 0.00 87 1007.0
20260505114543 72 182 3.0 6.0 0.00 0.00 0.00 87 1007.2
20260505113033 72 215 2.0 7.0 0.00 0.00 0.00 87 1007.4
20260505111533 72 207 1.0 8.0 0.00 0.00 0.00 87 1007.2
20260505101558 72 194 3.0 8.0 0.00 0.00 0.00 86 1007.2
20260505100058 72 202 3.0 6.0 0.00 0.00 0.00 86 1007.5
20260505094557 71 189 2.0 6.0 0.00 0.00 0.00 86 1007.2
20260505093025 72 190 3.0 8.0 0.00 0.00 0.00 85 1007.3
20260505091524 71 222 0.0 5.0 0.00 0.00 0.00 86 1007.6
20260505090053 71 209 1.0 4.0 0.00 0.00 0.00 86 1007.6
20260505084555 71 184 2.0 7.0 0.00 0.00 0.00 85 1007.6
20260505083054 71 219 1.0 5.0 0.00 0.00 0.00 85 1007.8
20260505081548 71 178 2.0 7.0 0.00 0.00 0.00 85 1007.8
20260505080046 71 207 2.0 5.0 0.00 0.00 0.00 85 1008.0
20260505074545 71 207 1.0 6.0 0.00 0.00 0.00 84 1008.0
20260505073051 71 200 1.0 5.0 0.00 0.00 0.00 84 1008.1
20260505071552 71 207 2.0 7.0 0.00 0.00 0.00 84 1008.3
20260505070040 71 188 1.0 7.0 0.00 0.00 0.00 83 1008.2
20260505064538 71 180 3.0 9.0 0.00 0.00 0.00 83 1008.4
20260505063007 71 215 2.0 5.0 0.00 0.00 0.00 82 1008.8
20260505061501 71 233 2.0 11.0 0.00 0.00 0.00 82 1009.1
20260505060059 71 223 1.0 9.0 0.00 0.00 0.00 81 1009.0
20260505054559 71 220 3.0 7.0 0.00 0.00 0.00 81 1009.0
20260505053056 71 190 2.0 9.0 0.00 0.00 0.00 80 1009.2
20260505051605 71 214 3.0 8.0 0.00 0.00 0.00 80 1009.4
20260505041547 72 208 3.0 10.0 0.00 0.00 0.00 78 1009.2
20260505040044 72 188 4.0 10.0 0.00 0.00 0.00 78 1009.8
20260505034542 73 193 4.0 10.0 0.00 0.00 0.00 77 1009.9
20260505033040 73 186 4.0 10.0 0.00 0.00 0.00 76 1010.0
20260505031544 73 184 5.0 14.0 0.00 0.00 0.00 76 1009.8
20260505030035 73 205 5.0 11.0 0.00 0.00 0.00 76 1009.8
20260505024534 73 221 5.0 12.0 0.00 0.00 0.00 76 1009.9
20260505023032 74 186 4.0 11.0 0.00 0.00 0.00 76 1009.6
20260505021531 74 198 4.0 9.0 0.00 0.00 0.00 75 1009.7
20260505020032 74 220 5.0 16.0 0.00 0.00 0.00 75 1009.5
20260505020029 74 198 5.0 16.0 0.00 0.00 0.00 75 1009.5
20260505014559 74 204 4.0 10.0 0.00 0.00 0.00 74 1009.3
20260505013126 75 215 6.0 14.0 0.00 0.00 0.00 73 1009.4
20260505011605 75 198 4.0 12.0 0.00 0.00 0.00 73 1009.1
20260505010105 75 223 3.0 12.0 0.00 0.00 0.00 72 1009.1
20260505004553 76 207 3.0 10.0 0.00 0.00 0.00 72 1009.0
20260505003056 76 302 3.0 10.0 0.00 0.00 0.00 71 1008.9
20260505001520 77 191 2.0 9.0 0.00 0.00 0.00 71 1008.9
20260505000025 77 191 4.0 9.0 0.00 0.00 0.00 70 1009.0
20260504234514 77 206 3.0 10.0 0.00 0.00 0.00 70 1009.2
20260504233014 77 208 4.0 12.0 0.00 0.00 0.00 69 1009.4
20260504231513 78 219 4.0 12.0 0.00 0.00 0.00 69 1009.4
20260504230013 78 223 4.0 12.0 0.00 0.00 0.00 68 1009.5
20260504224508 78 209 4.0 12.0 0.00 0.00 0.00 68 1009.7
20260504223008 78 187 5.0 13.0 0.00 0.00 0.00 67 1009.7
20260504221507 79 214 7.0 12.0 0.00 0.00 0.00 66 1010.0
20260504220002 79 205 4.0 10.0 0.00 0.00 0.00 65 1010.1
20260504214615 79 198 5.0 15.0 0.00 0.00 0.00 65 1010.1
20260504213121 80 232 3.0 9.0 0.00 0.00 0.00 63 1010.4
20260504211557 80 215 3.0 9.0 0.00 0.00 0.00 63 1010.4
20260504210059 82 208 5.0 10.0 0.00 0.00 0.00 62 1010.5
20260504204526 80 178 0.0 7.0 0.00 0.00 0.00 62 1010.8
20260504203027 80 198 4.0 11.0 0.00 0.00 0.00 62 1011.0
20260504201517 80 229 3.0 10.0 0.00 0.00 0.00 63 1011.3
20260504200015 81 202 2.0 8.0 0.00 0.00 0.00 62 1011.5
20260504194513 81 182 4.0 9.0 0.00 0.00 0.00 60 1011.7
20260504193019 80 198 2.0 8.0 0.00 0.00 0.00 62 1011.8
20260504191506 80 193 1.0 11.0 0.00 0.00 0.00 63 1012.0
20260504190004 79 211 2.0 12.0 0.00 0.00 0.00 62 1012.4
20260504184503 80 215 3.0 11.0 0.00 0.00 0.00 62 1012.5
20260504183002 80 214 3.0 10.0 0.00 0.00 0.00 61 1012.4
20260504181535 79 248 4.0 9.0 0.00 0.00 0.00 62 1012.6
20260504180025 78 186 4.0 9.0 0.00 0.00 0.00 62 1012.9
20260504174522 78 205 4.0 11.0 0.00 0.00 0.00 63 1013.1
20260504173019 78 252 3.0 10.0 0.00 0.00 0.00 62 1013.2
20260504171515 77 191 3.0 9.0 0.00 0.00 0.00 64 1013.7